DELTA 1 DEB, 21459

Orbit data source: Space-Track

DELTA 1 DEB, 21459 is space debris in SSO originally from a launch on Thu, 12 Jun 1975 UTC launched from the Air Force Western Test Range (AFWTR). Debris objects in space refer to the collection of defunct objects orbiting the Earth. Examples of debris include non-operational satellites, rocket bodies, and fragments generated from explosions, collisions, or faulty payload assembly.

Loading next visibility...
Identifier
21459, 1975-052ET
Orbit
SSO
Country
Flag of USUS
Related business
Manufacturer
Unknown
Mission
Spacecraft
Bus & Motor
Unknown
Mass
Unknown
Launch date (UTC)
1975-06-12 (51 years ago)
Launch vehicle
Unknown
Launch site
Air Force Western Test Range (AFWTR)
Object type
Payload
Rocket body
Debris
Shape & HBR
Unknown shape, 0.2 m
Radar Cross Section
Small (<0.1 m²)

Expand to show TLE details & history
Last TLE update: 16 hours ago

TLE from 16 hours ago
0 DELTA 1 DEB
1 21459U 75052ET  25350.28212799  .00000180  00000-0  39739-3 0  9998
2 21459  99.6650 170.3639 0052169 195.0635 346.7849 13.41339954692560
Epoch: 2025-12-16T06:46Z
TLE epoch observation values (Epoch: 2025-12-16T06:46:15.858Z)
Latitude
-1.80886°
Longitude
163.32267°
Altitude
1,069.322 km
Speed
7.336 km/s
True Right ascension
23h 20m 13s
True Declination
-1° 47' 55"
Sunlit
Object was in daylight at epoch
Visualization orbit readout
Latitude
Unknown
Longitude
Unknown
Altitude
Unknown
Speed
Unknown
Apparent Right ascension
Unknown
Apparent Declination
Unknown
Sunlit
N/A
Visualization observer readout
Local Sidereal Time
21:38:31
Azimuth
Unknown
Elevation
Unknown
Doppler factor
Unknown
Orbital elements
Apogee altitude
1,140.624 km
Perigee altitude
1,062.582 km
Semi-major axis
7,479.74 km
Eccentricity
0.00522
Inclination
99.665°
RAAN
170.3639°
Arg. of periapsis
195.0635°
True anomaly
346.64736°
Mean anomaly
346.7849°
Eccentric anomaly
346.71622°
Mean motion
3.35516 °/min
Orbital period
107.3 mins
BSTAR
0.00039739
Loading maneuver chart data...
Computing Atmospheric mass density...
Loading historical data...
Loading historical data...
Loading historical data...
Loading historical data...
Loading historical data...
Loading historical data...
Loading historical data...

Documentation

Showing up to 5 results
|